Home > Weather > Greater Sudbury > Past weeks

Flag for Canada Past Weather in Greater Sudbury, Ontario, Canada — Yesterday and Last 2 Weeks

Now
82 °F

Scattered clouds.


Feels Like: 82 °F
Forecast: N/A
Wind: 7 mph from West

Location: Sudbury

Current Time: Jul 26, 2016 at 5:58:34 PM

Latest Report: Jul 26, 2016 at 5:00 PM


Visibility: 20 mi

Pressure: 29.90 "Hg

Humidity: 42%

Dew Point: 57 °F

Location of Greater SudburyLocation

Past Weather in Greater Sudbury — Graph

°F

Greater Sudbury Temperature Yesterday

Maximum temperature yesterday: 81 °F (at 1:00 PM)
Minimum temperature yesterday: 66 °F (at 11:00 PM)
Average temperature yesterday: 73 °F

High & Low Weather Summary for the Past Weeks

 TemperatureHumidityPressure
High90 °F (Jul 22, 4:00 PM)100% (Jul 13, 5:00 AM)30.25 "Hg (Jul 13, 5:00 AM)
Low43 °F (Jul 16, 6:00 AM)31% (Jul 22, 4:00 PM)29.58 "Hg (Jul 14, 1:00 PM)
Average68 °F74%29.92 "Hg
* Reported Jul 11 4:00 PM — Jul 26 4:00 PM, Greater Sudbury, Weather by CustomWeather, © 2016

Note: Actual official high and low records may vary slightly from our data, if they occured in-between our weather recording intervals... More about our weather records

Advertising

Greater Sudbury Weather History for the Previous 24 Hours

Scroll right to see more
 ConditionsComfort  
Time TempWeatherWind HumidityBarometerVisibility
4:00 PM
Tue, Jul 26
84 °FScattered clouds.9 mph40%29.91 "Hg20 mi
3:00 PM84 °FScattered clouds.10 mph37%29.92 "Hg20 mi
2:00 PM81 °FScattered clouds.10 mph45%29.92 "Hg20 mi
1:00 PM82 °FScattered clouds.7 mph42%29.94 "Hg20 mi
12:00 PM81 °FPassing clouds.10 mph48%29.94 "Hg20 mi
11:00 AM77 °FSunny.10 mph54%29.96 "Hg20 mi
10:00 AM73 °FSunny.9 mph65%29.95 "Hg20 mi
9:00 AM68 °FSunny.7 mph78%29.94 "Hg20 mi
8:00 AM64 °FSunny.8 mph83%29.95 "Hg20 mi
7:00 AM59 °FSunny.7 mph94%29.94 "Hg20 mi
6:00 AM59 °FClear.7 mph94%29.92 "Hg15 mi
5:00 AM59 °FClear.8 mph94%29.91 "Hg15 mi
4:00 AM61 °FClear.8 mph88%29.91 "Hg15 mi
3:00 AM61 °FClear.6 mph88%29.90 "Hg15 mi
2:00 AM61 °FClear.7 mph94%29.89 "Hg15 mi
1:00 AM63 °FClear.7 mph88%29.88 "Hg15 mi
12:00 AM64 °FPassing clouds.6 mph83%29.87 "Hg15 mi
11:00 PM
Mon, Jul 25
66 °FPassing clouds.10 mph83%29.85 "Hg15 mi
10:00 PM68 °FPassing clouds.13 mph73%29.83 "Hg15 mi
9:00 PM70 °FPassing clouds.7 mph69%29.81 "Hg20 mi
8:00 PM73 °FPassing clouds.13 mph61%29.78 "Hg20 mi
7:00 PM77 °FScattered clouds.16 mph51%29.77 "Hg20 mi
6:00 PM79 °FScattered clouds.15 mph54%29.75 "Hg20 mi
5:00 PM81 °FBroken clouds.20 mph51%29.73 "Hg20 mi
Weather by CustomWeather, © 2016

See weather overviewHow to use our weather pages